EUR65 DAUA-VABB

Flight info

Callsign EUR65
Flight time N/A
Altitude 37000
Route DAUA TUC DIDON SONAK DOBIX ASDAX GZO AGARI EVIRA BINKO ALIXA DEMAG PIDAS PLH OTREX AMAXI SIT LAPSO TELRI VEREK PERIM GISOS VAXOS AMONO TOSKA TOBAL RUBIK LCA REXAL DESPO KUKLA KAD DAM SOFIA ABBAS SULAF TAN MODIK RAPLU PUSTO LOVEK DISAR BSR SIDAD DESLU NANPI OBMOR ALNIN IMDAT DURSI EGMID ORSAR MUTVI SHJ TONVO ALSAS DORAB VAXIM RASKI LADOT NOBAT EXOLU VABB
Aircraft A388/J-DGVW/C

Departure

Time N/A
Airport Touat-Cheikh Sidi Mohamed Belkebir Airport (DAUA)

Arrival

Time 2026-05-05 17:06
Airport Chhatrapati Shivaji Maharaj International Airport (VABB)
Time Latitude Longitude Altitude Speed Heading
2026-05-05 16:56 18.98536 72.97219 29502 ft 303 kts 329°
2026-05-05 16:56 19.00567 72.96742 27056 ft 296 kts 349°
2026-05-05 16:56 19.02588 72.96670 24616 ft 284 kts 356°
2026-05-05 16:56 19.04517 72.96703 22161 ft 272 kts 359°
2026-05-05 16:57 19.06380 72.96747 19695 ft 264 kts 359°
2026-05-05 16:57 19.08195 72.96781 17232 ft 258 kts 359°
2026-05-05 16:57 19.09977 72.96801 14766 ft 254 kts 360°
2026-05-05 16:57 19.11727 72.96807 12295 ft 249 kts 359°
2026-05-05 16:58 19.13346 72.97197 9837 ft 244 kts 18°
2026-05-05 16:58 19.14677 72.98294 7317 ft 236 kts 42°
2026-05-05 16:58 19.15379 72.99848 5016 ft 241 kts 71°
2026-05-05 16:58 19.15416 73.01508 4519 ft 215 kts 88°
2026-05-05 16:59 19.15382 73.03063 4118 ft 208 kts 90°
2026-05-05 16:59 19.15386 73.04574 3738 ft 203 kts 89°
2026-05-05 16:59 19.15403 73.06057 3361 ft 200 kts 89°
2026-05-05 16:59 19.15331 73.07519 2896 ft 201 kts 94°
2026-05-05 17:00 19.14759 73.08897 1987 ft 212 kts 120°
2026-05-05 17:00 19.13614 73.09650 1958 ft 180 kts 161°
2026-05-05 17:00 19.12494 73.09713 2974 ft 139 kts 181°
2026-05-05 17:00 19.11573 73.09773 3830 ft 141 kts 181°
2026-05-05 17:01 19.10497 73.09831 4141 ft 176 kts 180°
2026-05-05 17:01 19.09210 73.09292 3869 ft 219 kts 210°
2026-05-05 17:01 19.08300 73.08076 3759 ft 204 kts 239°
2026-05-05 17:01 19.08140 73.06613 3545 ft 206 kts 269°
2026-05-05 17:02 19.08600 73.05222 3543 ft 191 kts 290°
2026-05-05 17:02 19.09031 73.03957 3364 ft 179 kts 288°
2026-05-05 17:02 19.09237 73.02683 2999 ft 172 kts 278°
2026-05-05 17:02 19.09264 73.01445 2637 ft 165 kts 270°
2026-05-05 17:03 19.09207 73.00254 2320 ft 159 kts 267°
2026-05-05 17:03 19.09129 72.99104 2056 ft 155 kts 266°
2026-05-05 17:03 19.09060 72.97982 1844 ft 151 kts 266°
2026-05-05 17:03 19.09011 72.96881 1671 ft 150 kts 267°
2026-05-05 17:04 19.08980 72.95780 1517 ft 149 kts 268°
2026-05-05 17:04 19.08963 72.94681 1360 ft 150 kts 269°
2026-05-05 17:04 19.08952 72.93578 1180 ft 151 kts 269°
2026-05-05 17:04 19.08940 72.92470 979 ft 150 kts 269°
2026-05-05 17:05 19.08928 72.91366 775 ft 150 kts 269°
2026-05-05 17:05 19.08915 72.90266 569 ft 150 kts 269°
2026-05-05 17:05 19.08902 72.89170 374 ft 149 kts 269°
2026-05-05 17:05 19.08888 72.88074 181 ft 149 kts 269°
2026-05-05 17:06 19.08875 72.87010 59 ft 132 kts 269°
2026-05-05 17:06 19.08871 72.86158 39 ft 98 kts 257°
2026-05-05 17:06 19.08858 72.85679 38 ft 29 kts 263°
2026-05-05 17:06 19.08855 72.85644 38 ft 0 kts 268°